This demonstration page uses our WeatherBlox Daily Observations layout. Learn more.

Left ArrowRight Arrow

38.20091, -84.87328

Hourly Observations for April 19, 2016

Temp ( °F °C ) Dew Point ( °F °C ) Humidity (%) Winds ( mph kmh ) Pressure ( in mb ) Visibility ( mi km ) Precip ( " mm )
12:53 am 00:53 Clear 57 13.9 44 6.7 62 62 Calm 30.18 1022 10 16 0.00 0.00
1:53 am 01:53 Clear 56 13.3 45 7.2 67 67 Calm 30.18 1022 10 16 0.00 0.00
2:53 am 02:53 Clear 53 11.7 45 7.2 74 74 SW 3 6 30.17 1022 10 16 0.00 0.00
3:53 am 03:53 Clear 52 11.1 45 7.2 77 77 SSW 3 6 30.16 1021 10 16 0.00 0.00
4:53 am 04:53 Clear 50 10 44 6.7 80 80 SW 7 11 30.17 1022 10 16 0.00 0.00
5:53 am 05:53 Clear 50 10 44 6.7 80 80 Calm 30.16 1022 10 16 0.00 0.00
6:53 am 06:53 Clear 49 9.4 43 6.1 80 80 Calm 30.17 1022 10 16 0.00 0.00
7:53 am 07:53 Sunny 52 11.1 45 7.2 77 77 Calm 30.18 1022 10 16 0.00 0.00
8:53 am 08:53 Sunny 62 16.7 48 8.9 60 60 Calm 30.18 1022 10 16 0.00 0.00
9:53 am 09:53 Sunny 67 19.4 50 10 55 55 Calm 30.18 1022 10 16 0.00 0.00
10:53 am 10:53 Sunny 73 22.8 51 10.6 46 46 SW 7 11 30.19 1022 10 16 0.00 0.00
11:53 am 11:53 Sunny 75 23.9 50 10 41 41 SSW 6 9 30.18 1022 10 16 0.00 0.00
12:53 pm 12:53 Sunny 78 25.6 47 8.3 33 33 VRB 5 7 30.16 1022 10 16 0.00 0.00
1:53 pm 13:53 Sunny 82 27.8 41 5 23 23 VRB 6 9 30.15 1021 10 16 0.00 0.00
2:53 pm 14:53 Sunny 83 28.3 40 4.4 22 22 VRB 3 6 30.13 1020 10 16 0.00 0.00
3:53 pm 15:53 Mostly Cloudy 82 27.8 41 5 23 23 SW 7 11 30.12 1020 10 16 0.00 0.00
4:53 pm 16:53 Partly Cloudy 83 28.3 37 2.8 19 19 N 5 7 30.10 1019 10 16 0.00 0.00
5:53 pm 17:53 Sunny 82 27.8 38 3.3 21 21 VRB 3 6 30.09 1019 10 16 0.00 0.00
6:53 pm 18:53 Sunny 80 26.7 39 3.9 23 23 WNW 5 7 30.07 1018 10 16 0.00 0.00
7:53 pm 19:53 Sunny 77 25 42 5.6 29 29 Calm 30.07 1018 10 16 0.00 0.00
8:53 pm 20:53 Clear 67 19.4 49 9.4 53 53 Calm 30.08 1019 10 16 0.00 0.00
9:53 pm 21:53 Clear 66 18.9 45 7.2 47 47 Calm 30.09 1019 10 16 0.00 0.00
10:53 pm 22:53 Clear 64 17.8 47 8.3 54 54 WSW 3 6 30.09 1019 10 16 0.00 0.00
11:53 pm 23:53 Clear 64 17.8 47 8.3 54 54 NNE 6 9 30.10 1019 10 16 0.00 0.00

Powered by AerisWeather